When you browse on this site, cookies collect data to enhance your experience and personalize the content and advertising you see.
Visit our Privacy Policy to learn more. By continuing to use the site, you agree to this use of cookies and data.
  • In Hungary
  • List of Countries
  • For 7 days
  • Water Temperature
  • Weather Map
  • News
  • Weather Widgets
  • user-avatar
    Login

    Hourly Weather Brzozowica

    Today, 7 December, Saturday

    Time Temperature Precipitation Wind Pressure Humidity
    00:00 -1°C° 0.2 mm 7 mps 735 mmHg 90%
    01:00 -1°C° 0 mm 7 mps 734 mmHg 88%
    02:00 0°C° 0.5 mm 7 mps 734 mmHg 90%
    03:00 +1°C° 0.5 mm 6 mps 733 mmHg 92%
    04:00 +2°C° 0.5 mm 6 mps 733 mmHg 94%
    05:00 +2°C° 0.9 mm 7 mps 733 mmHg 93%
    06:00 +2°C° 0.9 mm 7 mps 732 mmHg 92%
    07:00 +2°C° 0 mm 6 mps 732 mmHg 89%
    08:00 +3°C° 0.3 mm 6 mps 732 mmHg 89%
    09:00 +3°C° 0.3 mm 6 mps 732 mmHg 90%
    10:00 +3°C° 0.3 mm 7 mps 732 mmHg 90%
    11:00 +4°C° 0.9 mm 7 mps 733 mmHg 89%
    12:00 +5°C° 0.9 mm 7 mps 733 mmHg 88%
    13:00 +5°C° 0.9 mm 8 mps 734 mmHg 87%
    14:00 +5°C° 0.1 mm 7 mps 734 mmHg 85%
    15:00 +4°C° 0.1 mm 6 mps 735 mmHg 84%
    16:00 +5°C° 0.1 mm 5 mps 735 mmHg 82%
    17:00 +3°C° 0 mm 5 mps 736 mmHg 83%
    18:00 +3°C° 0 mm 6 mps 736 mmHg 84%
    19:00 +3°C° 0 mm 6 mps 737 mmHg 85%
    20:00 +3°C° 0 mm 6 mps 737 mmHg 86%
    21:00 +3°C° 0 mm 6 mps 737 mmHg 86%
    22:00 +2°C° 0 mm 5 mps 738 mmHg 87%
    23:00 +3°C° 0.1 mm 5 mps 738 mmHg 88%

    Tomorrow, 8 December, Sunday

    Time Temperature Precipitation Wind Pressure Humidity
    00:00 +3°C° 0.1 mm 5 mps 738 mmHg 89%
    01:00 +3°C° 0.1 mm 5 mps 738 mmHg 90%
    02:00 +5°C° 0.4 mm 5 mps 738 mmHg 90%
    03:00 +4°C° 0.4 mm 6 mps 737 mmHg 89%
    04:00 +4°C° 0.4 mm 6 mps 737 mmHg 88%
    05:00 +4°C° 0 mm 6 mps 737 mmHg 88%
    06:00 +4°C° 0 mm 6 mps 737 mmHg 88%
    07:00 +4°C° 0 mm 6 mps 736 mmHg 88%
    08:00 +4°C° 0 mm 6 mps 736 mmHg 85%
    09:00 +4°C° 0 mm 7 mps 735 mmHg 83%
    10:00 +4°C° 0 mm 8 mps 735 mmHg 81%
    11:00 +4°C° 0 mm 8 mps 734 mmHg 80%
    12:00 +4°C° 0 mm 8 mps 733 mmHg 79%
    13:00 +5°C° 0 mm 9 mps 732 mmHg 78%
    14:00 +5°C° 0.7 mm 8 mps 731 mmHg 81%
    15:00 +5°C° 0.7 mm 8 mps 731 mmHg 83%
    16:00 +5°C° 0.7 mm 8 mps 730 mmHg 86%
    17:00 +6°C° 0.3 mm 8 mps 730 mmHg 87%
    18:00 +6°C° 0.3 mm 7 mps 730 mmHg 88%
    19:00 +6°C° 0.3 mm 7 mps 730 mmHg 89%
    20:00 +5°C° 0.1 mm 6 mps 730 mmHg 87%
    21:00 +5°C° 0.1 mm 6 mps 730 mmHg 85%
    22:00 +5°C° 0.1 mm 5 mps 730 mmHg 83%
    23:00 +5°C° 0 mm 5 mps 730 mmHg 83%

    Day after tomorrow, 9 December, Monday

    Time Temperature Precipitation Wind Pressure Humidity
    00:00 +3°C° 0 mm 5 mps 730 mmHg 84%
    01:00 +3°C° 0 mm 6 mps 729 mmHg 85%
    02:00 +3°C° 0 mm 6 mps 729 mmHg 84%
    03:00 +3°C° 0 mm 6 mps 729 mmHg 83%
    04:00 +3°C° 0 mm 7 mps 728 mmHg 81%
    05:00 +3°C° 0.2 mm 7 mps 728 mmHg 83%
    06:00 +3°C° 0.2 mm 7 mps 729 mmHg 84%
    07:00 +3°C° 0.2 mm 7 mps 729 mmHg 86%
    08:00 +3°C° 0 mm 7 mps 729 mmHg 83%
    09:00 +3°C° 0 mm 7 mps 729 mmHg 80%
    10:00 +3°C° 0 mm 6 mps 729 mmHg 76%
    11:00 +3°C° 0.1 mm 7 mps 729 mmHg 77%
    12:00 +3°C° 0.1 mm 7 mps 728 mmHg 78%
    13:00 +3°C° 0.1 mm 7 mps 728 mmHg 78%
    14:00 +3°C° 0 mm 7 mps 728 mmHg 79%
    15:00 +3°C° 0 mm 6 mps 728 mmHg 79%
    16:00 +3°C° 0 mm 5 mps 728 mmHg 79%
    17:00 +3°C° 0.4 mm 5 mps 728 mmHg 80%
    18:00 +3°C° 0.4 mm 6 mps 728 mmHg 82%
    19:00 +3°C° 0.4 mm 6 mps 728 mmHg 83%
    20:00 +3°C° 0.1 mm 6 mps 728 mmHg 85%
    21:00 +2°C° 0.1 mm 5 mps 729 mmHg 87%
    22:00 +2°C° 0.1 mm 5 mps 729 mmHg 89%
    23:00 +2°C° 0.3 mm 5 mps 729 mmHg 90%

    10 December, Tuesday

    Time Temperature Precipitation Wind Pressure Humidity
    00:00 +3°C° 0.3 mm 4 mps 730 mmHg 91%
    01:00 +3°C° 0.3 mm 4 mps 731 mmHg 92%
    02:00 +3°C° 0.1 mm 5 mps 731 mmHg 90%
    03:00 +3°C° 0.1 mm 6 mps 732 mmHg 88%
    04:00 +3°C° 0.1 mm 7 mps 733 mmHg 87%
    05:00 +3°C° 0.2 mm 7 mps 735 mmHg 86%
    06:00 +3°C° 0.2 mm 7 mps 736 mmHg 86%
    07:00 +3°C° 0.2 mm 7 mps 738 mmHg 85%
    08:00 +2°C° 0.3 mm 7 mps 739 mmHg 87%
    09:00 0°C° 0.3 mm 7 mps 741 mmHg 90%
    10:00 -1°C° 0.3 mm 7 mps 742 mmHg 92%
    11:00 -1°C° 0 mm 6 mps 743 mmHg 82%
    12:00 +1°C° 0 mm 5 mps 745 mmHg 72%
    13:00 +1°C° 0 mm 5 mps 746 mmHg 61%
    14:00 0°C° 0 mm 4 mps 746 mmHg 63%
    15:00 0°C° 0 mm 3 mps 747 mmHg 64%
    16:00 +1°C° 0 mm 2 mps 748 mmHg 65%
    17:00 -1°C° 0 mm 2 mps 748 mmHg 67%
    18:00 -1°C° 0 mm 2 mps 748 mmHg 68%
    19:00 -1°C° 0 mm 2 mps 749 mmHg 69%
    20:00 -1°C° 0 mm 2 mps 749 mmHg 71%
    21:00 -2°C° 0 mm 2 mps 749 mmHg 72%
    22:00 -2°C° 0 mm 2 mps 748 mmHg 74%
    23:00 -2°C° 0 mm 3 mps 748 mmHg 73%

    11 December, Wednesday

    Time Temperature Precipitation Wind Pressure Humidity
    00:00 -3°C° 0 mm 4 mps 748 mmHg 73%
    01:00 -2°C° 0 mm 4 mps 747 mmHg 73%
    02:00 -2°C° 0 mm 5 mps 747 mmHg 72%
    03:00 -3°C° 0 mm 6 mps 746 mmHg 71%
    04:00 -3°C° 0 mm 6 mps 746 mmHg 71%
    05:00 -3°C° 0 mm 7 mps 745 mmHg 71%
    06:00 -3°C° 0 mm 7 mps 745 mmHg 71%
    07:00 -4°C° 0 mm 8 mps 744 mmHg 71%
    08:00 -2°C° 0 mm 8 mps 744 mmHg 67%
    09:00 -2°C° 0 mm 8 mps 743 mmHg 62%
    10:00 -2°C° 0 mm 8 mps 743 mmHg 58%
    11:00 -2°C° 0 mm 7 mps 743 mmHg 60%
    12:00 -2°C° 0 mm 7 mps 742 mmHg 62%
    13:00 -2°C° 0 mm 6 mps 742 mmHg 65%
    14:00 -2°C° 0.1 mm 6 mps 742 mmHg 70%
    15:00 -1°C° 0.1 mm 5 mps 742 mmHg 75%
    16:00 -2°C° 0.1 mm 4 mps 742 mmHg 80%
    17:00 -2°C° 0.3 mm 4 mps 741 mmHg 84%
    18:00 -2°C° 0.3 mm 4 mps 741 mmHg 88%
    19:00 -2°C° 0.3 mm 4 mps 741 mmHg 91%
    20:00 -2°C° 0.6 mm 4 mps 741 mmHg 93%
    21:00 -1°C° 0.6 mm 3 mps 741 mmHg 94%
    22:00 -1°C° 0.6 mm 3 mps 741 mmHg 96%
    23:00 -1°C° 0.5 mm 3 mps 740 mmHg 96%

    12 December, Thursday

    Time Temperature Precipitation Wind Pressure Humidity
    00:00 -1°C° 0.5 mm 3 mps 740 mmHg 96%
    01:00 -1°C° 0.5 mm 3 mps 739 mmHg 96%
    02:00 -1°C° 0.4 mm 3 mps 739 mmHg 96%
    03:00 -1°C° 0.4 mm 3 mps 739 mmHg 97%
    04:00 -1°C° 0.4 mm 3 mps 738 mmHg 97%
    05:00 -1°C° 0.4 mm 3 mps 738 mmHg 97%
    06:00 0°C° 0.4 mm 3 mps 738 mmHg 97%
    07:00 0°C° 0.4 mm 3 mps 738 mmHg 97%
    08:00 0°C° 0 mm 3 mps 738 mmHg 97%
    09:00 0°C° 0 mm 3 mps 739 mmHg 97%
    10:00 0°C° 0 mm 3 mps 739 mmHg 97%
    11:00 +2°C° 0.1 mm 2 mps 739 mmHg 97%
    12:00 +2°C° 0.1 mm 2 mps 739 mmHg 97%
    13:00 +2°C° 0.1 mm 2 mps 738 mmHg 97%
    14:00 +1°C° 0 mm 3 mps 738 mmHg 96%
    15:00 +1°C° 0 mm 3 mps 738 mmHg 95%
    16:00 0°C° 0 mm 3 mps 738 mmHg 95%
    17:00 0°C° 0 mm 3 mps 738 mmHg 95%
    18:00 0°C° 0 mm 3 mps 738 mmHg 94%
    19:00 0°C° 0 mm 3 mps 738 mmHg 94%
    20:00 0°C° 0 mm 3 mps 738 mmHg 94%
    21:00 0°C° 0 mm 3 mps 738 mmHg 94%
    22:00 0°C° 0 mm 3 mps 738 mmHg 94%
    23:00 -1°C° 0 mm 4 mps 737 mmHg 94%
    Show more